FW9989 Weather Reports


time (UTC)temp
C
wind
direction
speed
KPH
gust
KPH
rain 1hr
cm
rain 24hr
cm
rain mn
cm
humidity
%
barometer
mb
20260507205455 11 7 14.5 14.5 0.00 1.22 1.22 99 1012.2
20260507204952 12 0 12.9 16.1 0.00 1.22 1.22 99 1012.2
20260507204448 12 356 9.7 12.9 0.13 1.22 1.22 99 1012.9
20260507203946 12 109 4.8 12.9 0.13 1.22 1.22 99 1012.5
20260507203444 12 359 11.3 14.5 0.00 1.19 1.19 99 1012.9
20260507202940 12 346 4.8 9.7 0.00 1.19 1.19 99 1012.5
20260507202436 12 1 3.2 9.7 0.00 1.19 1.19 99 1012.5
20260507201932 12 15 6.4 9.7 0.00 1.19 1.19 99 1012.2
20260507201433 12 6 12.9 14.5 0.00 1.19 1.19 99 1012.2
20260507200930 12 353 11.3 16.1 0.00 1.19 1.19 99 1012.2
20260507200425 12 3 11.3 14.5 0.00 1.19 1.19 99 1012.5
20260507195921 12 11 3.2 8.0 0.00 1.19 1.19 99 1012.2
20260507195419 12 31 3.2 12.9 0.00 1.19 1.19 98 1012.2
20260507194916 12 346 4.8 12.9 0.00 1.19 1.19 98 1012.2
20260507194413 12 350 4.8 11.3 0.00 1.19 1.19 98 1012.2
20260507193909 12 27 4.8 9.7 0.00 1.19 1.19 98 1012.2
20260507193406 12 0 6.4 9.7 0.00 1.19 1.19 98 1012.2
20260507192902 12 345 3.2 4.8 0.00 1.19 1.19 98 1012.2
20260507192359 12 350 6.4 8.0 0.00 1.19 1.19 98 1012.2
20260507191855 12 355 4.8 9.7 0.00 1.19 1.19 98 1012.2
20260507191352 12 343 4.8 8.0 0.00 1.19 1.19 98 1012.2
20260507190848 12 12 4.8 9.7 0.00 1.19 1.19 98 1012.2
20260507190347 12 356 4.8 9.7 0.00 1.19 1.19 98 1011.8
20260507185845 12 344 8.0 14.5 0.00 1.19 1.19 98 1011.8
20260507185342 12 18 8.0 11.3 0.00 1.19 1.19 98 1011.8
20260507184839 12 70 8.0 14.5 0.00 1.19 1.19 98 1012.2
20260507184337 12 293 3.2 11.3 0.00 1.19 1.19 98 1011.8
20260507183833 12 322 6.4 8.0 0.00 1.19 1.19 98 1011.8
20260507183331 12 335 8.0 11.3 0.00 1.19 1.19 98 1011.8
20260507182828 11 47 6.4 12.9 0.18 1.19 1.19 98 1012.2
20260507182324 12 18 9.7 14.5 0.00 1.17 1.17 98 1012.2
20260507181820 12 348 8.0 16.1 0.00 1.17 1.17 98 1012.9
20260507181316 12 28 8.0 11.3 0.00 1.17 1.17 98 1012.9
20260507180813 12 83 1.6 4.8 0.00 1.17 1.17 98 1012.9
20260507180310 12 328 4.8 9.7 0.00 1.17 1.17 98 1012.5
20260507175805 12 355 4.8 12.9 0.00 1.17 1.17 98 1012.5
20260507175306 12 336 4.8 9.7 0.00 1.17 1.17 98 1012.2
20260507174800 12 29 3.2 11.3 0.00 1.17 1.17 98 1012.2
20260507174258 12 11 4.8 11.3 0.00 1.17 1.17 98 1012.2
20260507173755 12 338 6.4 9.7 0.00 1.17 1.17 98 1012.2
20260507173252 12 187 0.0 4.8 0.00 1.17 1.17 98 1012.5
20260507172748 12 284 6.4 12.9 0.00 1.17 1.17 98 1012.5
20260507172245 12 155 0.0 16.1 0.00 1.17 1.17 98 1012.2
20260507171741 12 330 8.0 9.7 0.00 1.17 1.17 99 1012.2
20260507171238 12 18 3.2 12.9 0.13 1.17 1.17 99 1012.2
20260507170735 12 301 1.6 12.9 0.13 1.17 1.17 99 1012.2
20260507170231 12 29 1.6 9.7 0.00 1.14 1.14 99 1012.9
20260507165727 12 25 3.2 17.7 0.00 1.14 1.14 99 1012.5
20260507165224 13 3 11.3 12.9 0.00 1.14 1.14 99 1012.2
20260507164720 13 333 3.2 4.8 0.00 1.14 1.14 99 1012.5
20260507164217 13 14 3.2 8.0 0.00 1.14 1.14 99 1011.8
20260507163714 13 334 3.2 11.3 0.00 1.14 1.14 99 1012.5
20260507163212 13 306 4.8 8.0 0.00 1.14 1.14 99 1012.2
20260507162708 13 357 8.0 11.3 0.18 1.14 1.14 99 1012.9
20260507162204 13 239 0.0 8.0 0.18 1.14 1.14 99 1012.9
20260507161700 13 343 8.0 11.3 0.18 1.12 1.12 99 1013.2
20260507161157 13 338 3.2 14.5 0.18 1.12 1.12 99 1013.5
20260507160653 13 14 6.4 14.5 0.00 1.09 1.09 99 1013.2
20260507160150 13 337 8.0 17.7 0.13 1.09 1.09 99 1012.9
20260507155645 13 355 3.2 14.5 0.30 1.09 1.09 99 1012.9
20260507155142 13 45 4.8 16.1 0.30 1.07 1.07 99 1012.9
20260507154639 13 41 4.8 17.7 0.13 1.04 1.04 99 1012.9
20260507154137 13 349 8.0 12.9 0.18 1.02 1.02 99 1012.9
20260507153633 13 348 8.0 17.7 0.18 1.02 1.02 99 1012.9
20260507153129 13 29 4.8 8.0 0.13 0.99 0.99 99 1012.5
20260507152626 13 13 3.2 12.9 0.13 0.99 0.99 99 1012.5
20260507152121 13 350 6.4 9.7 0.18 0.97 0.97 99 1012.2
20260507151618 13 356 3.2 20.9 0.18 0.97 0.97 99 1012.9
20260507151115 13 357 1.6 3.2 0.13 0.94 0.94 99 1012.2
20260507150612 13 235 0.0 0.0 0.18 0.91 0.91 99 1012.5
20260507150109 13 352 0.0 3.2 0.18 0.91 0.91 99 1012.5
20260507145604 13 10 0.0 4.8 0.13 0.89 0.89 99 1012.9
20260507145102 13 333 0.0 1.6 0.30 0.89 0.89 99 1012.9
20260507144558 13 279 0.0 1.6 0.30 0.86 0.86 99 1012.5
20260507144056 13 347 0.0 0.0 0.30 0.84 0.84 99 1012.2
20260507143552 13 32 4.8 8.0 0.36 0.81 0.81 99 1012.5
20260507143050 13 1 6.4 16.1 0.30 0.79 0.79 99 1012.5
20260507142550 13 354 8.0 14.5 0.30 0.76 0.76 99 1012.5
20260507142047 14 38 0.0 14.5 0.30 0.74 0.74 99 1012.5
20260507141543 14 46 4.8 11.3 0.30 0.71 0.71 99 1012.2
20260507141040 14 36 1.6 8.0 0.18 0.69 0.69 99 1012.5
20260507140537 14 340 8.0 22.5 0.13 0.66 0.66 99 1012.5
20260507140035 14 359 14.5 17.7 0.30 0.66 0.66 99 1012.9
20260507135531 15 359 22.5 24.1 0.18 0.64 0.64 99 1012.9
20260507135029 15 9 16.1 20.9 0.00 0.61 0.61 99 1012.9
20260507134525 15 12 14.5 25.7 0.00 0.61 0.61 99 1012.2
20260507134021 15 34 16.1 20.9 0.00 0.61 0.61 99 1012.2
20260507133517 16 350 14.5 16.1 0.13 0.61 0.61 99 1011.8
20260507133015 16 4 17.7 35.4 0.13 0.61 0.61 99 1011.5
20260507132511 18 358 0.0 0.0 0.00 0.58 0.58 99 1011.2
20260507132008 18 203 0.0 0.0 0.00 0.58 0.58 99 1011.2
20260507131505 18 207 0.0 0.0 0.00 0.58 0.58 99 1011.5
20260507131002 18 207 0.0 0.0 0.18 0.58 0.58 99 1011.2
20260507130459 18 198 0.0 0.0 0.30 0.58 0.58 99 1011.2
20260507125957 18 198 0.0 0.0 0.13 0.56 0.56 99 1011.5
20260507125455 18 209 0.0 0.0 0.00 0.53 0.53 99 1011.8
20260507124952 18 209 0.0 0.0 0.00 0.53 0.53 99 1011.8
20260507124448 18 209 0.0 0.0 0.00 0.53 0.53 99 1011.8
20260507123947 18 209 0.0 0.0 0.00 0.53 0.53 99 1011.8
20260507123444 18 197 0.0 0.0 0.00 0.53 0.53 99 1011.8
20260507122940 18 195 0.0 0.0 0.00 0.53 0.53 99 1011.8
20260507122436 18 208 0.0 0.0 0.00 0.53 0.53 99 1011.8
20260507121932 18 208 0.0 0.0 0.00 0.53 0.53 99 1011.8
20260507121427 18 209 0.0 0.0 0.00 0.53 0.53 99 1011.8
20260507120924 18 209 0.0 0.0 0.00 0.53 0.53 99 1011.8
20260507120420 18 179 0.0 0.0 0.00 0.53 0.53 99 1011.8
20260507115917 18 179 0.0 0.0 0.00 0.53 0.53 99 1012.2
20260507115413 18 205 0.0 0.0 0.00 0.53 0.53 99 1012.5
20260507114909 18 214 0.0 0.0 0.00 0.53 0.53 99 1012.5
20260507114406 18 220 0.0 0.0 0.00 0.53 0.53 99 1012.5
20260507113903 18 208 0.0 0.0 0.00 0.53 0.53 99 1012.2
20260507113400 18 192 0.0 0.0 0.00 0.53 0.53 99 1011.8
20260507112857 18 192 0.0 0.0 0.00 0.53 0.53 99 1012.2
20260507112355 18 196 0.0 0.0 0.00 0.53 0.53 99 1012.2
20260507111852 18 193 0.0 0.0 0.00 0.53 0.53 99 1012.2
20260507111349 18 193 0.0 0.0 0.00 0.53 0.53 99 1011.8
20260507110845 18 186 0.0 0.0 0.00 0.53 0.53 99 1012.2
20260507110341 18 184 0.0 0.0 0.00 0.53 0.53 99 1012.2
20260507105838 18 184 0.0 0.0 0.18 0.53 0.53 99 1011.8
20260507105335 18 182 0.0 0.0 0.18 0.53 0.53 99 1012.2
20260507104832 18 184 0.0 0.0 0.13 0.51 0.51 99 1011.8
20260507104328 18 308 0.0 0.0 0.13 0.51 0.51 99 1012.2
20260507103824 18 246 0.0 0.0 0.00 0.48 0.48 99 1012.2
20260507103321 18 188 0.0 0.0 0.00 0.48 0.48 99 1011.8
20260507102817 18 187 0.0 0.0 0.18 0.48 0.48 99 1011.8
20260507102314 18 188 0.0 0.0 0.18 0.48 0.48 99 1011.8
20260507101810 18 188 0.0 0.0 0.00 0.46 0.46 99 1011.8
20260507101305 18 200 0.0 0.0 0.00 0.46 0.46 99 1011.8
20260507100802 18 168 0.0 0.0 0.00 0.46 0.46 99 1011.8
20260507100300 18 353 0.0 1.6 0.00 0.46 0.46 99 1011.8
20260507095758 18 358 0.0 0.0 0.18 0.46 0.46 99 1011.5
20260507095254 18 247 0.0 0.0 0.18 0.46 0.46 99 1011.8
20260507094751 18 212 1.6 3.2 0.00 0.43 0.43 99 1011.5
20260507094248 18 189 0.0 0.0 0.13 0.43 0.43 99 1011.2
20260507093745 18 150 0.0 3.2 0.00 0.41 0.41 99 1011.5
20260507093244 18 212 4.8 4.8 0.00 0.41 0.41 99 1011.8
20260507092741 18 189 1.6 8.0 0.18 0.41 0.41 99 1011.8
20260507092237 18 200 3.2 8.0 0.13 0.38 0.38 99 1011.5
20260507091734 18 217 0.0 3.2 0.13 0.38 0.38 99 1011.8
20260507091230 18 174 1.6 4.8 0.18 0.36 0.36 99 1011.8
20260507090725 18 184 0.0 3.2 0.30 0.36 0.36 99 1011.5
20260507090222 18 180 9.7 11.3 0.13 0.33 0.33 99 1011.5
20260507085720 18 150 3.2 4.8 0.18 0.30 0.30 99 1011.8
20260507085216 18 190 0.0 3.2 0.18 0.30 0.30 99 1011.8
20260507084713 18 201 0.0 0.0 0.13 0.28 0.28 98 1011.8
20260507084210 18 218 0.0 1.6 0.13 0.28 0.28 98 1011.8
20260507083707 18 191 0.0 4.8 0.00 0.25 0.25 98 1011.8
20260507083204 18 127 9.7 12.9 0.18 0.25 0.25 98 1011.8
20260507082700 18 216 1.6 9.7 0.18 0.25 0.25 98 1011.5
20260507082156 18 170 1.6 12.9 0.00 0.23 0.23 98 1011.5
20260507081653 18 205 0.0 8.0 0.00 0.23 0.23 98 1011.2
20260507081149 18 167 0.0 3.2 0.13 0.23 0.23 98 1011.5
20260507080646 18 141 0.0 3.2 0.13 0.23 0.23 98 1011.5
20260507080142 18 195 0.0 9.7 0.18 0.20 0.20 97 1011.5
20260507075637 18 184 0.0 0.0 0.18 0.20 0.20 97 1011.8
20260507075133 18 177 0.0 0.0 0.00 0.18 0.18 97 1011.8
20260507074630 18 203 8.0 9.7 0.00 0.18 0.18 97 1012.5
20260507074129 18 186 6.4 9.7 0.00 0.18 0.18 97 1012.2
20260507073625 18 221 0.0 1.6 0.00 0.18 0.18 97 1012.2
20260507073121 18 185 0.0 11.3 0.00 0.18 0.18 98 1012.2
20260507072619 18 189 1.6 3.2 0.00 0.18 0.18 98 1012.2
20260507072116 18 194 0.0 8.0 0.18 0.18 0.18 98 1012.2
20260507071613 18 172 0.0 1.6 0.18 0.18 0.18 98 1012.2
20260507071109 18 200 3.2 8.0 0.00 0.15 0.15 98 1012.5
20260507070607 18 186 1.6 3.2 0.00 0.15 0.15 98 1012.5
20260507070104 18 160 0.0 0.0 0.00 0.15 0.15 98 1012.9
20260507065600 19 190 0.0 0.0 0.00 0.15 0.15 98 1012.9
20260507065057 19 176 0.0 0.0 0.00 0.15 0.15 98 1012.5
20260507064555 19 257 0.0 0.0 0.00 0.15 0.15 98 1012.9
20260507064053 19 199 0.0 0.0 0.00 0.15 0.15 97 1012.9
20260507063550 19 164 1.6 3.2 0.00 0.15 0.15 97 1012.5
20260507063048 19 163 0.0 0.0 0.00 0.15 0.15 97 1012.2
20260507062544 19 193 0.0 0.0 0.00 0.15 0.15 97 1012.9
20260507062041 19 190 1.6 1.6 0.00 0.15 0.15 96 1012.9
20260507061539 19 201 0.0 1.6 0.00 0.15 0.15 96 1012.9
20260507061037 19 201 3.2 4.8 0.00 0.15 0.15 96 1012.9
20260507060535 19 148 1.6 3.2 0.00 0.15 0.15 96 1012.9
20260507060031 19 200 1.6 8.0 0.00 0.15 0.15 96 1012.9
20260507055531 19 206 1.6 3.2 0.00 0.15 0.15 96 1012.9
20260507055028 19 183 3.2 8.0 0.00 0.15 0.15 96 1012.5
20260507054524 19 170 8.0 9.7 0.00 0.15 0.15 96 1012.2
20260507054021 19 187 4.8 12.9 0.00 0.15 0.15 96 1012.5
20260507053519 19 202 3.2 8.0 0.00 0.15 0.15 96 1012.5
20260507053018 19 193 0.0 4.8 0.00 0.15 0.15 96 1012.9
20260507052515 20 203 6.4 9.7 0.00 0.15 0.15 96 1012.5
20260507052011 20 174 0.0 11.3 0.00 0.15 0.15 96 1012.9
20260507051509 20 164 4.8 9.7 0.00 0.15 0.15 96 1012.5
20260507051006 20 182 0.0 4.8 0.00 0.15 0.15 96 1012.9
20260507050502 20 207 0.0 3.2 0.30 0.15 0.15 96 1012.9
20260507045959 20 186 0.0 0.0 0.43 0.15 0.15 95 1012.9
20260507045455 20 162 0.0 3.2 0.13 0.10 0.10 95 1012.9
20260507044953 20 193 0.0 3.2 0.00 0.08 0.08 95 1014.2
20260507044449 20 142 0.0 8.0 0.18 0.08 0.08 95 1013.9
20260507043946 20 130 0.0 9.7 0.00 0.05 0.05 96 1014.2
20260507043442 20 152 0.0 4.8 0.13 0.05 0.05 96 1013.9
20260507042938 20 157 0.0 0.0 0.13 0.05 0.05 95 1014.2
20260507042435 20 178 0.0 0.0 0.18 0.03 0.03 95 1013.9
20260507041931 20 193 0.0 0.0 0.18 0.03 0.03 94 1014.2
20260507041428 20 184 0.0 0.0 0.00 0.00 0.00 94 1013.9
20260507040925 20 169 0.0 3.2 0.00 0.00 0.00 94 1013.5
20260507040421 20 193 0.0 3.2 0.00 0.00 0.00 94 1013.5
20260507035917 20 174 0.0 0.0 0.00 0.08 0.08 94 1013.5
20260507035413 20 135 0.0 0.0 0.00 0.08 0.08 94 1013.5
20260507034910 20 192 0.0 9.7 0.00 0.08 0.08 93 1013.2
20260507034407 20 200 0.0 0.0 0.00 0.08 0.08 94 1013.5
20260507033905 20 180 0.0 1.6 0.13 0.08 0.08 94 1012.9
20260507033403 20 159 0.0 0.0 0.00 0.05 0.05 94 1013.2
20260507032900 20 185 0.0 4.8 0.00 0.05 0.05 93 1013.2
20260507032356 20 166 0.0 0.0 0.00 0.05 0.05 93 1013.2
20260507031853 20 153 0.0 0.0 0.18 0.05 0.05 92 1013.5
20260507031349 20 175 0.0 0.0 0.18 0.05 0.05 91 1013.5
20260507030846 20 183 0.0 0.0 0.00 0.03 0.03 90 1013.2
20260507030344 20 169 0.0 0.0 0.00 0.03 0.03 89 1013.2
20260507025840 20 171 0.0 0.0 0.00 0.03 0.03 89 1012.9
20260507025338 20 190 0.0 0.0 0.00 0.03 0.03 90 1013.2
20260507024835 20 190 0.0 0.0 0.00 0.03 0.03 89 1013.2
20260507024332 20 190 0.0 0.0 0.00 0.03 0.03 89 1013.2
20260507023828 20 177 0.0 0.0 0.00 0.03 0.03 89 1012.9
20260507023325 20 179 0.0 0.0 0.00 0.03 0.03 89 1012.9
20260507022822 20 222 0.0 0.0 0.00 0.03 0.03 88 1012.9
20260507022319 20 217 0.0 0.0 0.00 0.03 0.03 86 1012.9
20260507021815 21 198 0.0 0.0 0.00 0.03 0.03 85 1012.2
20260507021311 21 188 0.0 0.0 0.00 0.03 0.03 84 1012.9
20260507020809 21 178 0.0 0.0 0.00 0.03 0.03 84 1012.9
20260507020305 21 167 0.0 0.0 0.00 0.03 0.03 84 1013.2
20260507015803 21 185 0.0 0.0 0.00 0.03 0.03 84 1013.5
20260507015300 20 211 0.0 0.0 0.00 0.03 0.03 86 1013.5
20260507014757 20 213 0.0 0.0 0.00 0.03 0.03 87 1013.5
20260507014253 20 214 0.0 0.0 0.00 0.03 0.03 87 1013.5
20260507013749 20 213 0.0 0.0 0.00 0.03 0.03 87 1013.5
20260507013247 21 214 0.0 0.0 0.00 0.03 0.03 87 1013.5
20260507012744 21 192 0.0 0.0 0.00 0.03 0.03 85 1013.5
20260507012244 21 193 0.0 0.0 0.00 0.03 0.03 84 1013.2
20260507011743 21 166 0.0 0.0 0.00 0.03 0.03 84 1012.9
20260507011239 21 169 0.0 0.0 0.00 0.03 0.03 86 1012.9
20260507010738 21 205 0.0 0.0 0.00 0.03 0.03 86 1013.2
20260507010235 21 207 0.0 0.0 0.00 0.03 0.03 83 1012.9
20260507005732 21 168 0.0 0.0 0.00 0.03 0.03 82 1012.9
20260507005229 21 177 0.0 0.0 0.00 0.03 0.03 82 1013.2
20260507004725 21 187 0.0 0.0 0.00 0.03 0.03 83 1013.2
20260507004223 21 187 0.0 0.0 0.00 0.03 0.03 83 1013.2
20260507003719 21 217 0.0 0.0 0.00 0.03 0.03 82 1012.9
20260507003214 22 173 0.0 0.0 0.00 0.03 0.03 81 1012.9
20260507002711 22 199 0.0 0.0 0.00 0.03 0.03 81 1012.9
20260507002207 22 161 0.0 0.0 0.00 0.03 0.03 81 1012.9
20260507001703 22 183 0.0 0.0 0.00 0.03 0.03 81 1012.9
20260507001201 22 190 0.0 1.6 0.00 0.03 0.03 81 1012.9
20260507000657 22 187 0.0 0.0 0.00 0.03 0.03 81 1013.2
20260507000153 22 197 1.6 9.7 0.00 0.03 0.03 80 1013.5
20260506235650 22 183 0.0 1.6 0.00 0.03 0.03 80 1013.5
20260506235145 22 213 3.2 4.8 0.00 0.03 0.03 80 1013.2
20260506234643 22 170 0.0 0.0 0.00 0.03 0.03 80 1013.5
20260506234139 22 199 0.0 4.8 0.00 0.03 0.03 79 1013.5
20260506233637 22 205 0.0 0.0 0.00 0.03 0.03 79 1013.2
20260506233134 22 232 0.0 4.8 0.00 0.03 0.03 79 1013.2
20260506232630 22 212 0.0 3.2 0.00 0.03 0.03 78 1013.2
20260506232125 22 175 6.4 9.7 0.00 0.03 0.03 78 1013.2
20260506231623 22 203 6.4 9.7 0.00 0.03 0.03 78 1012.9
20260506231121 22 209 8.0 11.3 0.00 0.03 0.03 78 1012.9
20260506230617 22 203 9.7 11.3 0.00 0.03 0.03 78 1012.9
20260506230115 22 204 6.4 12.9 0.00 0.03 0.03 77 1012.5
20260506225611 23 213 8.0 11.3 0.00 0.03 0.03 78 1012.9
20260506225107 23 172 9.7 12.9 0.00 0.03 0.03 77 1012.9
20260506224604 23 197 9.7 17.7 0.00 0.03 0.03 77 1012.5
20260506224101 23 201 9.7 12.9 0.00 0.03 0.03 77 1012.5
20260506223557 23 196 14.5 17.7 0.00 0.03 0.03 76 1012.9
20260506223053 23 205 9.7 17.7 0.00 0.03 0.03 77 1012.5
20260506222550 23 225 11.3 20.9 0.00 0.03 0.03 76 1012.9
20260506222046 23 188 8.0 24.1 0.00 0.03 0.03 76 1012.9
20260506221544 23 213 8.0 20.9 0.00 0.03 0.03 76 1012.5
20260506221042 23 179 4.8 22.5 0.00 0.03 0.03 76 1012.9
20260506220538 23 179 9.7 29.0 0.00 0.03 0.03 76 1012.5
20260506220033 23 216 9.7 20.9 0.00 0.03 0.03 77 1012.5
20260506215531 23 196 9.7 24.1 0.00 0.03 0.03 76 1012.5
20260506215026 23 197 19.3 22.5 0.00 0.03 0.03 76 1012.5
20260506214523 23 198 14.5 22.5 0.00 0.03 0.03 77 1012.5
20260506214020 23 218 6.4 16.1 0.00 0.03 0.03 77 1012.9
20260506213519 23 191 11.3 24.1 0.00 0.03 0.03 77 1012.9
20260506213015 23 201 14.5 24.1 0.00 0.03 0.03 77 1012.9
20260506212512 23 189 16.1 29.0 0.00 0.03 0.03 77 1012.9
20260506212007 22 200 11.3 16.1 0.00 0.03 0.03 77 1012.9
20260506211503 22 194 19.3 25.7 0.00 0.03 0.03 78 1012.9
20260506211000 22 193 11.3 16.1 0.00 0.03 0.03 78 1012.5
20260506210456 22 202 11.3 14.5 0.00 0.03 0.03 78 1012.5
20260506205954 22 183 11.3 14.5 0.00 0.03 0.03 78 1012.5